Simultaneous Nadir Overpasses (SNOs) Predictions

Prediction of SNOs over PacNW region [( 10.00, 139.50) to ( 22.70, 165.60)] between NOAA-19 and NPP Satellites:

Table of predicted SNOs over PacNW region for the next 30.0 days since TLE Epoch: 9/27/2013
Index Date (NOAA-19) Time (NOAA-19) NOAA-19 Lat,Lon Date (NPP) Time (NPP) NPP Lat,Lon Distance(km) Time Diff (sec)
1 10/04/2013 15:08:17 22.62, 162.06 10/04/2013 15:11:52 23.94, 157.38 500.66 215
2 10/05/2013 02:24:49 22.68, 165.46 10/05/2013 02:24:41 21.91, 161.74 393.33 8
3 10/05/2013 04:06:53 22.66, 139.95 10/05/2013 04:06:11 21.91, 136.36 379.03 42
4 10/05/2013 15:00:52 10.03, 161.78 10/05/2013 14:57:16 8.35, 158.42 413.66 216
5 10/17/2013 03:33:22 10.07, 150.57 10/17/2013 03:36:58 7.87, 146.03 555.70 216
6 10/17/2013 16:09:32 22.15, 146.75 10/17/2013 16:09:23 22.92, 142.85 410.06 9
7 10/18/2013<
